Location: Newark
(40.9833°N, 0.0333°W)
Time: 00:25:08
(UTC+00:00)

deb Explorer IX - Pass Details

Date: 03 November 2020
Orbit: 537 x 1105 km, 38.8° (Epoch: 03 December)

Event Time Altitude Azimuth Distance (km) Brightness Sun altitude
Rises 02:51:56 0° 230° (SW) 2,941 - -41.9°
Reaches altitude 10° 02:54:15 10° 222° (SW) 2,110 - -41.5°
Maximum altitude 02:58:48 38° 155° (SSE) 1,138 - -40.7°
Exits shadow 03:02:09 20° 99° (E) 1,814 ? -40.1°
Drops below altitude 10° 03:04:07 10° 89° (E) 2,470 ? -39.7°
Sets 03:07:02 0° 82° (E) 3,512 ? -39.2°
